Dewpoint
74 75 74 75 75 75 75 76 76 74 74 75 75 75 75 74 73 73 73 73 73 74 74 75 75 75 74 75 74 74 76 75 75 76 76 75 75 75 74 74 74 73 73 71 69 70 70 69 68 69 68 68 67 66 63 64 66 65 64 64 63 65 65 65 64 63 65 64 61 59 61 63 63 64 64 63 68 68 67 66 69 67 66 64 65
74 75 75 74 74 75 75 75 75 75 74 74 75 75 75 75 74 74 73 74 74 73 75 75 75 74 74 75 76 74 76 76 74 75 76 75 75 73 73 74 73 73 73 72 71 70 70 70 69 68 69 68 67 66 65 63 65 63 63 63 64 65 67 65 64 63 63 64 63 63 61 62 63 66 64 62 63 68 67 64 64 66 66 64 62
73 75 75 75 75 75 74 75 76 75 74 73 73 73 74 75 75 74 73 72 75 74 74 75 76 76 76 76 76 75 76 76 76 75 76 76 75 73 73 74 73 73 72 72 71 71 70 70 69 68 68 68 68 67 65 65 65 66 64 63 65 65 66 67 66 64 62 63 65 64 64 63 63 64 66 64 66 65 67 66 63 63 65 63 62
72 75 75 74 74 74 75 75 73 73 73 72 72 72 72 73 74 74 73 71 72 75 75 75 76 77 76 76 76 76 75 76 76 75 76 76 75 75 74 74 73 73 73 72 71 71 71 71 70 68 68 68 68 67 67 65 65 67 66 65 66 65 66 67 66 66 64 62 64 63 65 64 63 64 64 65 63 63 63 66 66 65 64 64 63
72 73 74 72 73 75 74 74 73 73 72 71 71 71 71 70 72 73 73 71 71 73 75 76 77 77 76 75 76 76 76 76 76 75 75 76 75 74 74 74 74 74 74 74 73 72 72 71 71 69 69 68 68 67 66 67 66 65 66 66 65 65 65 65 67 67 65 63 64 65 66 65 65 66 64 63 64 65 65 65 64 66 66 62 62
70 72 72 72 73 75 75 74 72 73 73 71 71 70 69 69 70 72 73 72 71 70 74 75 76 77 77 77 76 77 77 77 77 76 75 75 75 75 74 74 74 74 74 74 73 73 73 72 71 71 69 68 68 68 67 67 67 66 66 66 66 66 67 66 67 68 67 65 64 63 67 65 65 66 66 64 63 63 64 65 66 66 67 65 61
71 72 72 71 74 75 74 74 73 72 73 72 70 69 68 67 67 69 72 72 72 70 70 75 76 76 77 77 76 77 77 77 77 77 76 76 75 76 74 74 74 74 75 74 73 72 72 72 72 72 70 69 68 68 68 67 65 67 67 67 66 66 65 65 66 66 67 66 64 64 64 66 66 65 66 66 65 64 64 64 65 66 67 66 66
71 72 73 73 75 75 75 75 74 73 74 75 73 70 69 69 70 70 72 73 71 71 69 72 75 75 77 77 77 77 78 77 77 78 77 76 75 76 75 74 74 75 75 74 72 72 72 72 71 72 71 71 70 70 69 68 67 67 67 68 67 67 65 65 65 65 66 65 64 63 62 65 66 66 66 67 66 66 65 64 64 65 67 69 67
71 71 73 74 75 76 76 76 76 75 74 75 75 73 72 72 72 71 73 73 73 72 71 71 74 75 76 77 77 77 77 77 77 77 77 76 75 75 75 74 74 74 74 73 73 72 72 71 70 70 73 72 69 70 69 68 68 68 69 69 69 68 67 66 66 66 65 65 65 65 63 63 65 66 65 64 65 65 66 65 64 64 64 65 70
72 72 73 75 76 77 77 77 77 77 76 76 77 76 74 74 72 72 72 72 74 75 74 73 72 74 75 76 77 76 77 77 74 69 71 77 76 74 75 75 74 74 74 74 72 72 71 70 70 71 70 69 68 68 68 68 68 68 70 70 69 69 68 67 66 66 65 65 64 64 62 62 62 65 64 64 66 67 65 66 65 64 64 63 66
73 73 74 75 76 77 78 77 77 77 77 76 77 77 76 75 75 76 75 74 75 77 75 73 72 72 74 75 76 76 76 76 68 66 67 69 75 76 74 75 75 74 74 74 73 72 72 72 72 72 71 69 70 67 68 69 69 69 71 71 70 70 69 67 67 66 65 65 65 64 62 63 63 63 63 63 64 65 65 65 65 66 65 65 64
71 74 74 75 76 77 77 78 78 77 77 77 77 77 77 76 76 76 74 74 76 74 74 75 75 73 73 74 75 76 76 70 65 65 66 66 69 76 74 74 74 74 74 73 74 72 71 71 71 71 71 73 73 72 70 68 68 68 69 71 71 70 69 70 69 67 66 65 65 65 64 64 65 65 60 60 65 64 65 65 66 66 65 65 65
71 74 74 75 76 77 78 78 78 77 77 77 77 77 77 77 76 75 75 75 75 76 76 75 75 74 73 75 74 74 75 68 64 64 65 65 66 70 74 74 73 73 73 74 73 73 73 72 71 71 71 68 71 72 73 72 66 66 67 68 69 68 66 66 68 71 67 67 66 65 65 66 66 66 66 65 67 64 65 65 65 67 67 66 65
73 73 74 75 76 77 78 78 78 78 78 77 77 77 77 77 76 75 75 76 76 75 75 76 76 76 75 75 75 74 75 67 63 63 63 64 64 68 74 74 74 73 73 74 73 73 74 73 72 72 72 74 73 72 73 72 72 70 71 71 70 70 67 65 65 66 68 69 68 66 68 69 68 68 69 68 66 65 64 65 67 67 66 65 66
72 73 74 75 76 77 78 78 78 78 78 77 77 77 77 77 77 76 74 75 75 76 75 76 76 76 75 73 73 73 73 64 61 61 62 62 63 65 75 74 75 75 75 75 75 73 74 74 74 73 73 74 73 72 73 72 72 70 70 69 68 68 69 68 68 69 70 69 69 69 68 68 69 68 68 68 66 67 65 65 66 67 67 68 67
72 74 74 75 76 77 77 77 78 78 78 77 77 77 77 78 77 77 75 74 75 75 76 75 75 75 75 74 73 73 72 61 60 60 60 61 62 71 75 75 75 75 75 75 75 75 74 75 75 73 74 74 70 65 69 73 72 71 70 69 69 68 67 66 64 65 67 68 68 67 68 71 65 70 69 64 67 68 66 65 66 67 66 64 62
72 73 74 75 75 76 76 76 77 77 77 77 77 77 77 77 77 77 76 74 73 74 75 75 76 75 75 75 75 74 73 66 58 59 59 60 62 73 75 74 74 74 74 75 75 75 75 75 75 74 73 74 69 62 64 68 73 72 70 70 68 67 67 68 63 61 62 61 62 62 61 60 61 60 61 63 68 66 66 64 63 61 63 62 61
71 73 74 75 75 76 76 76 76 77 77 77 76 76 76 76 77 77 75 74 73 73 74 75 75 75 74 75 74 74 74 66 56 57 58 58 64 74 75 74 74 74 74 74 75 75 75 70 74 75 74 74 64 61 62 69 73 72 71 69 68 68 67 67 69 68 61 61 61 62 60 61 62 62 62 62 62 65 66 64 61 59 59 61 61
71 72 74 75 75 75 75 75 76 76 76 77 76 76 75 76 76 77 75 75 74 74 74 74 74 75 74 73 71 73 74 67 56 56 57 57 64 75 75 74 74 74 73 73 74 74 75 71 68 71 71 71 60 60 61 66 72 72 71 70 68 67 67 68 69 69 68 67 68 68 68 65 69 69 69 64 66 68 66 65 62 60 60 60 59
72 72 73 74 74 75 75 76 76 75 76 76 77 76 76 75 76 75 75 74 74 73 73 73 73 73 74 73 73 74 74 75 65 55 56 56 59 74 75 74 73 73 74 73 73 74 74 74 70 63 63 63 59 58 59 61 71 72 72 70 69 69 69 70 70 69 68 67 67 67 67 68 68 68 68 66 65 66 65 65 64 62 61 60 57
73 74 74 73 73 74 74 75 75 74 75 75 75 75 75 75 74 75 74 74 74 74 74 73 72 73 72 73 72 72 72 73 70 54 55 55 57 64 75 74 74 74 73 73 73 73 74 73 72 65 60 60 57 56 57 58 63 73 72 71 71 70 69 69 71 67 68 68 68 67 66 66 66 66 64 67 64 64 64 64 63 62 61 58 56
73 74 74 74 73 73 74 75 75 74 75 76 76 76 75 75 75 75 73 74 75 75 75 75 73 72 73 73 74 74 72 68 76 56 55 54 56 58 72 74 74 74 73 73 73 73 73 73 73 67 59 58 56 55 56 57 59 71 73 64 62 62 70 70 70 68 68 67 67 65 65 64 64 64 62 63 64 63 64 63 63 62 61 59 58
73 74 74 74 74 74 75 75 75 74 74 76 76 76 76 76 76 76 76 75 75 75 76 75 75 74 74 73 73 76 77 76 68 63 54 54 54 56 61 69 66 75 72 72 73 73 73 74 72 64 59 57 54 54 55 56 58 67 63 59 59 61 67 69 69 68 68 67 66 66 66 65 65 63 61 60 60 63 63 63 63 63 65 62 58
74 74 74 74 73 73 73 73 75 75 76 76 76 77 77 76 76 76 76 75 74 74 74 74 73 71 71 72 74 75 77 76 67 60 60 53 54 54 56 60 63 71 73 72 73 73 73 75 71 60 56 55 53 54 55 56 62 59 59 57 59 61 69 69 69 68 68 66 66 66 65 64 63 60 60 61 59 64 62 59 62 62 63 62 61
75 74 74 74 74 73 74 74 75 75 76 76 76 76 76 76 75 76 76 74 73 73 73 72 73 73 73 73 72 73 74 78 74 67 58 54 53 53 55 57 59 60 71 73 73 73 67 63 61 56 56 55 54 54 55 55 57 58 58 56 61 68 69 68 68 68 67 67 65 65 65 64 62 63 65 65 65 65 66 60 59 61 59 61 61
75 75 75 75 74 74 73 73 75 76 75 74 75 75 75 74 73 74 73 72 73 73 72 71 71 72 73 72 72 72 74 74 74 73 61 57 55 54 55 55 57 58 62 70 65 64 63 60 58 55 56 57 60 62 63 62 57 58 58 59 68 68 67 68 69 68 66 66 64 64 63 63 61 64 67 68 66 64 63 62 59 54 57 58 59
74 74 74 74 74 74 74 72 72 74 74 73 72 72 72 71 72 72 72 71 71 71 72 73 72 70 71 71 71 72 73 73 73 72 75 67 64 62 58 59 55 56 62 66 65 68 68 66 65 58 59 58 60 60 61 60 59 61 63 64 68 68 68 67 68 67 66 65 64 63 62 63 64 66 68 68 66 66 63 63 57 57 59 59 61
75 75 74 74 74 74 73 72 72 71 72 71 69 69 71 71 71 73 71 71 71 71 72 71 71 71 70 71 72 72 71 71 72 72 72 72 70 68 65 63 63 63 64 66 69 70 70 64 60 63 63 61 63 64 65 64 62 62 64 66 68 67 66 64 67 67 67 65 64 64 63 65 65 67 67 63 61 62 62 61 59 59 57 60 58
75 75 75 75 76 75 73 73 73 70 69 72 74 72 72 74 78 74 71 71 72 71 73 72 73 74 73 74 73 73 74 74 74 55 60 54 61 64 70 67 65 66 62 60 68 70 72 70 64 64 64 63 63 64 64 63 62 63 64 66 67 67 66 65 65 65 65 65 66 65 65 66 64 64 64 62 64 62 62 63 62 61 60 58 56
72 73 74 74 74 74 74 74 74 74 72 72 72 66 62 56 66 72 68 60 56 57 60 69 66 64 65 65 66 63 62 62 54 50 48 48 47 48 52 54 57 62 60 58 62 69 71 68 66 65 64 64 64 64 64 64 63 63 64 63 66 66 65 65 64 64 64 64 65 64 64 63 63 64 63 62 64 63 62 60 61 61 60 55 55
69 70 70 72 72 72 71 72 73 74 73 73 73 71 62 64 52 52 58 60 53 51 50 50 51 54 66 63 63 59 56 52 48 47 46 46 46 45 45 46 48 50 54 63 65 66 69 69 66 65 65 65 65 64 64 63 63 63 63 64 66 65 64 64 64 63 63 63 65 64 64 63 63 62 62 61 61 60 60 60 60 60 58 55 54
69 68 68 69 69 69 69 70 70 69 70 70 70 70 65 61 63 59 51 53 49 46 47 46 47 48 50 56 58 63 58 52 48 46 46 45 45 44 43 43 45 46 48 52 65 67 67 68 66 65 65 64 65 65 64 63 63 63 64 64 65 65 64 64 63 65 64 64 63 62 62 62 62 61 60 59 57 57 59 58 58 58 57 55 55
69 69 68 68 68 68 66 65 65 65 65 66 64 64 62 57 56 58 69 53 51 53 52 50 49 49 49 48 48 51 49 47 46 46 46 45 44 44 44 43 43 44 46 54 61 66 68 68 67 65 65 65 66 66 65 65 64 65 65 65 65 66 65 64 63 65 64 64 64 63 62 62 61 60 58 57 56 55 58 57 57 58 57 55 55
69 68 68 68 67 66 65 66 66 67 67 65 62 62 62 62 60 61 61 65 69 65 55 48 49 52 50 47 49 48 47 47 47 46 45 45 44 44 43 49 45 43 47 56 61 63 66 68 68 67 66 66 66 67 66 65 65 65 65 65 66 66 65 64 64 64 63 63 63 63 62 62 61 59 57 56 57 57 56 56 56 56 55 53 52
67 67 67 66 65 65 65 65 65 67 67 65 63 60 62 63 63 61 60 60 60 61 60 68 55 46 59 58 54 51 48 47 48 48 47 47 46 44 42 53 56 57 53 53 56 60 63 66 67 67 66 66 66 67 66 65 65 65 65 65 65 65 65 64 64 65 64 64 64 63 62 61 61 57 56 55 55 57 56 55 54 54 54 52 51
64 64 64 63 64 64 65 66 66 67 66 65 63 60 61 62 59 59 58 61 60 59 58 62 65 55 49 49 49 48 49 49 49 49 49 48 45 42 56 58 57 57 57 59 58 58 60 64 67 67 67 66 66 67 66 65 65 65 66 65 64 64 64 64 63 64 63 63 64 62 60 60 58 59 56 56 57 56 55 55 54 53 52 51 52
64 64 65 65 65 64 64 63 65 66 63 62 63 63 62 63 61 60 59 60 61 59 60 63 64 62 61 62 61 55 52 51 50 50 49 48 44 52 57 56 56 57 57 58 58 59 60 61 64 67 67 67 67 67 66 66 65 65 63 65 65 64 64 64 64 64 64 64 63 62 60 59 58 57 57 56 56 56 55 54 54 54 54 53 51
67 67 67 67 66 66 66 64 63 64 65 66 65 63 61 61 63 61 61 61 61 61 60 60 60 62 60 63 65 63 61 56 54 52 55 55 62 64 64 62 59 59 58 59 59 60 60 61 62 64 67 67 67 67 66 66 65 65 64 64 63 63 60 62 62 63 63 63 62 61 60 59 60 58 57 57 56 55 54 53 52 50 50 52 49
64 63 63 63 62 64 63 63 63 62 61 62 61 61 61 61 61 61 62 62 62 60 60 61 61 61 61 63 64 62 60 61 61 61 62 63 63 63 63 62 63 63 60 59 59 59 60 61 62 64 66 67 66 65 65 65 64 64 64 63 63 63 62 63 63 63 63 62 61 60 59 58 58 58 57 57 56 56 53 51 49 49 49 49 49
63 63 63 62 62 61 62 63 62 61 62 62 61 60 60 60 61 62 60 60 60 60 60 58 59 60 60 65 63 61 61 62 61 62 63 63 62 62 63 62 63 63 63 62 62 62 62 64 65 65 65 66 65 65 64 64 63 63 63 63 63 63 63 63 63 63 61 61 61 60 59 59 59 59 58 58 57 55 55 52 51 50 50 49 48
64 65 64 62 62 62 62 61 62 62 63 63 62 63 61 61 62 61 60 59 58 58 57 58 58 59 61 64 52 52 62 61 60 61 62 61 62 63 63 63 63 63 63 64 64 64 65 65 65 65 65 65 64 63 63 63 63 63 63 62 62 62 63 63 63 62 63 62 62 62 61 61 60 58 57 58 53 52 52 52 50 49 49 47 45
63 64 64 63 63 62 62 62 62 65 65 64 64 63 64 63 62 61 62 61 60 60 60 59 60 60 57 52 54 49 61 61 60 60 61 61 62 63 63 63 64 64 64 64 65 64 63 63 64 65 64 64 63 63 63 63 63 63 62 62 62 62 62 62 62 62 62 63 62 62 60 58 57 56 55 51 51 50 50 49 48 48 46 44 44
62 62 62 64 63 64 62 63 64 64 64 64 63 64 64 63 63 62 61 61 60 59 60 60 60 60 61 59 60 55 61 60 61 60 60 61 62 62 62 62 63 64 64 64 66 64 63 63 63 63 63 63 63 63 63 63 62 62 62 61 62 62 62 62 62 62 61 61 59 60 57 55 54 53 52 51 49 49 48 48 47 45 44 44 44
60 59 60 60 60 61 62 61 61 62 62 62 63 63 62 63 62 62 62 62 61 61 60 59 59 60 61 61 61 61 59 60 61 61 62 62 62 61 62 62 62 63 63 64 65 64 63 62 62 62 62 62 62 62 63 63 63 62 62 62 61 61 61 61 61 61 60 59 56 56 55 53 52 51 51 49 48 46 46 47 45 45 44 43 42
59 58 58 58 59 59 59 60 58 60 61 61 62 61 61 61 62 62 62 61 61 61 61 60 60 59 59 61 62 61 61 62 61 61 61 61 61 62 62 62 62 63 63 63 64 64 62 62 62 61 61 61 61 61 61 61 62 62 62 61 60 60 60 60 60 60 60 57 54 53 52 51 50 49 48 47 47 47 45 46 45 47 44 44 43
56 56 56 56 57 57 58 58 58 59 60 59 59 59 60 60 61 61 61 61 60 61 61 61 61 61 60 61 61 61 61 61 62 61 61 61 61 62 62 62 62 63 63 64 64 63 62 62 61 61 60 60 60 60 61 61 61 61 61 61 61 61 61 61 60 58 57 55 53 51 50 50 50 49 50 47 45 46 46 45 46 44 44 44 43
56 55 56 55 55 57 57 59 57 57 58 58 58 58 58 58 59 59 58 58 59 59 59 60 60 61 62 62 61 61 61 60 61 61 61 61 61 62 63 62 62 62 63 63 64 64 63 62 61 60 60 60 60 60 61 61 61 61 61 61 61 61 60 58 58 56 55 53 52 50 49 48 48 47 48 47 46 45 45 44 45 45 44 43 42
53 54 54 56 56 56 56 56 56 57 56 57 56 56 56 57 56 56 57 57 57 57 58 58 60 60 61 61 60 60 60 60 60 60 60 60 60 60 62 61 62 63 63 63 64 64 62 61 61 61 61 61 61 61 61 61 61 60 60 59 58 57 55 52 56 55 53 53 52 51 51 48 47 46 45 46 46 44 45 44 44 44 44 42 41
51 52 52 52 53 53 54 53 54 54 54 54 54 54 54 54 54 54 55 55 56 57 57 58 58 58 59 59 59 59 60 60 60 60 60 59 60 60 61 62 62 62 63 63 63 63 63 62 61 60 60 59 58 57 56 56 57 55 54 54 50 44 42 45 49 56 49 54 50 50 50 47 47 47 46 46 46 45 44 44 44 43 42 42 39
49 50 50 50 50 50 50 51 51 51 52 52 52 52 52 52 52 52 52 52 52 53 54 55 57 58 58 58 58 59 60 62 62 61 60 60 59 60 61 62 61 62 62 61 61 62 62 62 62 61 59 57 55 54 53 53 53 51 49 47 40 38 38 39 41 43 49 50 48 48 47 47 47 46 45 46 46 44 43 42 43 42 40 40 39
48 48 48 48 48 48 48 48 48 49 49 49 49 49 48 48 49 50 50 50 49 49 50 51 53 54 56 58 59 59 61 63 61 60 61 60 60 60 60 60 60 61 60 60 61 61 61 61 60 60 60 54 51 51 51 50 50 48 42 40 39 39 41 43 48 37 40 44 49 47 46 46 47 46 44 44 44 43 42 43 41 40 40 36 35